Wind_Speed
40 40 40 41 41 41 42 42 42 43 42 41 41 41 41 40 40 40 39 38 38 38 39 40 41 40 40 40 40 40 40 41 41 41 41 42 42 42 42 42 42 42 42
40 41 42 42 42 42 42 43 42 42 41 40 40 41 41 41 40 40 39 39 38 38 38 40 41 42 41 41 40 40 40 41 42 42 43 44 43 44 44 43 43 42 41
39 40 41 42 42 43 43 44 43 42 41 41 40 41 41 41 40 40 39 40 39 38 39 40 41 41 42 41 41 41 42 41 42 42 43 44 43 44 44 43 43 42 41
38 39 40 40 42 43 44 43 43 42 41 42 41 42 42 42 41 40 39 40 40 39 39 40 41 41 42 42 41 41 42 42 42 42 43 43 43 43 43 42 41 41 40
37 37 38 40 41 42 43 43 43 43 42 42 42 42 42 42 42 41 40 40 40 39 39 40 40 41 42 42 42 42 42 42 42 42 42 42 42 41 41 40 40 39 39
37 37 38 40 41 41 41 41 42 42 41 41 42 42 42 42 42 42 42 41 41 40 39 39 40 40 41 42 43 43 42 42 41 41 41 41 41 39 38 37 38 38 38
35 36 37 39 40 41 41 42 42 42 43 43 43 42 41 41 41 41 41 41 40 39 39 39 39 38 39 40 41 41 41 41 41 41 41 41 40 39 38 38 38 38 38
32 34 34 36 38 39 41 42 42 43 43 43 43 43 42 41 41 41 41 41 40 39 39 38 38 38 38 39 40 40 41 41 41 41 41 40 40 40 39 38 37 36 37
31 32 34 35 36 37 38 39 40 41 42 43 44 44 43 42 41 41 41 41 40 39 39 39 38 39 40 40 40 40 40 41 41 40 40 40 40 39 38 37 36 36 35
32 33 34 35 36 37 38 38 38 39 40 41 41 42 43 42 42 41 41 41 40 39 39 40 39 39 39 39 39 39 39 39 40 39 39 38 38 38 37 37 36 36 35
32 34 34 34 35 36 37 37 37 37 38 38 38 39 39 40 40 40 41 40 39 39 39 40 40 39 39 39 39 38 38 39 38 38 38 37 37 37 37 36 36 36 36
32 33 33 34 34 34 35 35 36 36 36 36 37 36 36 37 39 39 39 39 39 39 39 39 39 39 38 38 38 37 37 37 37 36 36 36 36 36 37 36 36 36 35
31 31 32 33 33 33 34 34 35 35 36 35 35 35 35 36 37 37 37 37 37 37 37 37 38 37 37 36 36 36 36 36 36 36 36 35 36 36 36 36 35 35 35
31 30 30 31 33 33 34 34 34 35 35 34 34 34 35 35 35 35 35 35 36 36 36 36 37 37 37 36 35 36 36 36 36 36 36 36 36 36 36 36 35 35 35
31 31 30 30 31 32 32 32 33 33 34 33 33 33 33 33 33 34 34 35 36 36 36 36 36 36 36 35 35 35 35 36 35 35 35 35 35 35 35 35 35 35 35
29 30 30 30 30 31 31 31 31 31 31 30 30 30 31 32 32 33 33 33 34 35 35 35 35 36 36 36 35 34 34 34 34 34 34 34 34 34 34 34 33 33 33
29 29 29 29 30 30 30 30 29 29 28 28 28 29 30 30 32 32 32 32 33 34 33 33 33 33 33 34 34 34 35 35 34 34 33 33 33 33 33 32 32 31 31
29 29 29 29 29 29 29 29 28 28 27 27 28 28 29 29 30 30 31 31 32 32 32 32 32 32 32 32 33 33 33 34 33 33 32 32 31 31 31 30 30 31 30
28 29 29 30 29 29 29 29 28 27 27 27 28 28 28 29 29 29 30 30 30 30 30 30 31 31 31 31 31 31 31 31 31 31 31 30 30 30 29 29 29 30 29
28 29 29 29 29 29 29 29 29 28 27 27 26 27 27 28 28 29 29 29 29 28 28 29 29 30 30 30 30 29 29 29 30 30 30 30 29 29 29 29 29 28 28
28 28 28 29 29 28 28 28 28 27 26 26 26 26 27 27 27 27 28 28 28 28 28 28 28 28 28 28 28 28 29 29 29 29 30 30 29 29 28 28 29 28 28
26 27 28 28 28 28 27 27 27 27 27 26 26 25 25 26 25 25 26 26 27 27 27 27 27 27 27 27 28 29 29 29 29 30 30 30 30 29 29 29 29 28 28
25 25 25 26 26 26 27 27 27 27 26 26 26 25 25 24 24 25 25 26 27 27 27 27 27 27 27 27 28 28 29 29 30 30 30 29 29 29 29 29 29 28 28
23 23 23 24 25 25 26 26 26 26 26 26 25 25 25 24 25 26 26 26 26 27 27 27 28 28 28 28 28 28 29 29 29 28 28 28 28 28 28 28 28 28 27
21 21 22 22 22 23 24 25 25 25 25 25 25 25 25 25 26 26 27 27 27 27 27 27 27 28 28 28 28 27 27 28 27 27 26 26 26 26 27 28 27 27 26
21 21 21 21 21 21 22 23 24 24 24 25 25 25 25 26 26 27 27 26 26 26 26 27 27 27 26 27 27 27 27 26 26 26 25 25 25 25 26 26 26 25 24
Wind_Direction
253 252 251 249 247 247 247 249 250 251 253 256 257 259 260 261 262 263 262 260 259 259 258 259 260 261 263 265 268 270 272 274 275 277 279 281 283 283 284 284 283 283 282
254 254 252 250 249 249 249 248 251 253 256 258 258 259 261 262 263 263 262 259 258 259 261 261 261 262 264 265 268 270 272 274 276 277 279 280 282 283 284 284 283 282 282
255 254 253 252 250 250 250 250 251 254 256 259 260 260 261 263 264 264 262 260 259 261 263 264 263 263 265 266 268 270 272 273 275 277 279 280 282 283 283 283 283 282 282
257 256 254 252 252 251 251 252 254 256 257 259 260 261 261 262 263 263 262 262 260 263 265 266 265 264 266 268 269 270 271 272 274 276 278 280 282 283 283 283 282 282 281
258 258 255 252 252 252 253 254 255 257 259 260 261 262 261 260 260 261 262 261 262 263 264 266 268 268 268 268 269 270 271 272 274 275 277 280 282 283 283 282 281 281 282
260 259 256 254 253 253 254 256 257 258 259 261 261 261 261 261 260 260 261 261 262 262 263 265 267 269 268 269 270 271 271 272 274 275 277 279 281 282 283 283 281 282 282
261 260 258 256 255 255 255 257 258 260 261 261 262 262 262 261 259 260 262 262 262 262 262 264 266 267 269 269 271 272 272 272 274 276 278 279 280 280 281 282 282 281 282
261 259 259 258 257 256 257 258 259 261 261 261 262 262 261 260 260 261 262 263 263 263 262 263 265 267 269 270 271 272 273 273 275 276 278 279 280 279 279 280 280 281 282
261 260 260 258 257 257 257 258 259 260 261 262 262 261 260 260 260 260 262 262 263 262 261 262 265 268 269 271 272 273 274 274 274 276 277 278 279 279 278 279 279 280 282
260 260 260 259 258 258 258 259 260 262 263 264 263 261 259 259 259 260 261 261 261 261 261 263 266 268 270 270 272 273 274 274 274 275 277 277 278 278 278 278 278 279 281
260 259 259 258 258 259 259 260 262 263 264 264 263 260 259 258 258 259 260 260 260 261 261 264 265 268 269 270 272 273 274 274 275 275 276 276 277 278 277 277 278 279 281
262 259 257 256 257 259 260 261 262 263 264 264 262 260 259 259 259 258 259 260 260 261 262 264 265 267 269 270 272 273 274 275 276 275 275 275 277 277 276 277 277 279 280
263 261 258 258 258 260 260 261 263 263 264 264 261 258 258 260 260 259 258 257 258 260 261 262 263 265 267 269 271 273 273 274 276 274 274 275 276 275 275 275 276 277 278
262 262 260 259 259 260 260 262 262 263 264 263 260 258 258 258 258 258 257 257 258 260 261 262 263 263 265 268 271 272 273 274 275 275 274 276 275 274 274 274 274 276 277
262 261 261 260 261 261 262 262 263 264 264 263 261 258 258 258 259 258 258 259 261 262 263 263 263 265 265 267 271 272 273 274 274 275 274 275 275 274 274 275 275 275 277
262 260 260 260 262 262 263 264 265 266 265 262 260 260 259 259 259 259 258 261 263 263 264 264 264 266 266 268 270 271 271 272 272 274 274 275 275 274 274 274 275 275 276
263 261 260 260 262 262 264 265 266 264 263 261 261 261 260 260 259 258 259 262 265 264 265 264 264 266 268 269 270 271 271 270 271 272 273 273 274 275 274 273 273 274 275
265 262 261 262 263 263 263 264 264 264 262 262 262 263 262 261 259 258 261 264 265 265 266 265 265 266 269 270 272 273 272 271 270 270 272 273 274 274 273 272 272 273 274
265 263 262 263 263 262 261 261 262 262 261 262 262 261 261 261 259 260 262 264 265 265 267 267 268 268 270 271 273 273 272 271 270 270 271 273 273 272 272 271 273 273 273
267 265 263 262 262 261 259 259 259 260 261 261 262 261 261 260 260 262 263 264 264 264 265 267 269 269 270 271 272 271 270 270 269 270 272 273 272 271 271 271 272 273 275
268 266 264 262 261 260 260 259 258 258 259 260 261 261 260 259 260 262 262 262 262 263 265 267 268 269 270 271 272 271 271 271 271 272 274 274 273 272 271 272 272 273 275
268 268 265 261 259 259 258 257 257 257 257 259 260 259 259 260 260 260 261 262 261 262 265 267 268 269 270 273 274 273 273 273 273 274 275 274 272 272 272 272 271 271 272
268 267 264 261 259 258 257 256 256 256 256 258 259 260 260 259 259 260 261 261 262 263 266 269 270 271 272 273 274 273 273 273 274 275 275 273 272 272 271 271 270 270 270
267 265 263 262 260 258 257 255 254 254 254 256 257 259 260 259 261 262 263 264 265 267 268 269 270 271 271 272 273 274 274 275 276 276 274 273 272 271 270 269 267 267 267
266 265 264 262 261 258 257 255 254 253 253 254 256 259 261 262 262 264 265 267 267 268 269 270 270 270 270 271 272 273 274 275 275 274 272 272 272 270 270 268 266 266 266
265 264 263 261 261 261 259 256 253 251 252 253 256 260 261 263 263 264 265 266 267 268 269 269 270 271 271 271 271 272 273 274 273 272 271 272 272 271 270 269 267 266 264
Height
5615 5618 5620 5623 5626 5629 5631 5634 5637 5639 5642 5644 5645 5647 5648 5650 5651 5653 5654 5655 5657 5658 5659 5660 5662 5663 5664 5665 5665 5666 5666 5666 5665 5666 5666 5665 5663 5661 5659 5657 5655 5653 5651
5605 5608 5610 5613 5616 5619 5621 5624 5626 5629 5631 5633 5635 5637 5638 5639 5641 5642 5643 5644 5646 5648 5649 5650 5652 5653 5653 5655 5655 5655 5655 5655 5654 5654 5654 5653 5651 5649 5647 5645 5643 5642 5640
5596 5598 5600 5603 5606 5609 5611 5614 5616 5618 5621 5622 5624 5626 5627 5629 5630 5631 5633 5634 5636 5637 5638 5640 5641 5642 5643 5644 5644 5644 5644 5644 5643 5643 5642 5641 5639 5638 5636 5634 5632 5630 5629
5587 5589 5591 5594 5596 5599 5601 5604 5606 5608 5610 5612 5613 5615 5616 5617 5619 5621 5622 5623 5625 5627 5628 5629 5630 5631 5632 5633 5633 5633 5633 5632 5632 5631 5630 5629 5628 5626 5624 5623 5621 5620 5618
5578 5580 5582 5584 5587 5589 5592 5594 5596 5598 5599 5601 5602 5603 5605 5606 5608 5609 5611 5613 5614 5616 5618 5619 5619 5620 5620 5621 5621 5622 5621 5621 5621 5620 5619 5618 5616 5615 5613 5611 5610 5609 5608
5569 5571 5573 5575 5577 5579 5582 5584 5586 5588 5589 5590 5591 5593 5594 5595 5596 5598 5600 5601 5603 5605 5607 5608 5608 5609 5609 5609 5610 5610 5610 5610 5609 5608 5608 5606 5605 5604 5602 5601 5599 5599 5598
5560 5562 5563 5565 5567 5569 5571 5574 5576 5577 5578 5579 5580 5581 5583 5584 5585 5587 5588 5590 5592 5593 5595 5597 5597 5598 5598 5599 5599 5599 5598 5598 5598 5598 5597 5595 5594 5593 5592 5591 5589 5588 5587
5551 5553 5554 5556 5557 5559 5561 5563 5565 5566 5567 5568 5569 5570 5571 5573 5574 5576 5577 5579 5580 5582 5584 5585 5586 5587 5588 5588 5589 5589 5588 5587 5587 5587 5586 5584 5583 5582 5581 5580 5579 5578 5577
5543 5544 5545 5546 5547 5549 5550 5552 5554 5555 5556 5557 5558 5559 5560 5562 5563 5564 5566 5567 5569 5571 5573 5574 5576 5577 5578 5577 5578 5578 5578 5577 5576 5575 5574 5573 5572 5571 5570 5569 5569 5568 5567
5534 5535 5535 5536 5538 5539 5540 5541 5543 5544 5545 5545 5546 5547 5549 5550 5552 5553 5555 5556 5559 5561 5562 5563 5565 5566 5566 5566 5566 5567 5567 5566 5566 5565 5564 5563 5561 5560 5560 5559 5558 5557 5557
5524 5525 5526 5527 5528 5529 5530 5531 5532 5533 5534 5535 5535 5536 5537 5539 5541 5542 5544 5545 5547 5549 5551 5552 5554 5554 5554 5555 5555 5555 5555 5555 5554 5554 5553 5553 5552 5551 5550 5549 5548 5547 5547
5515 5515 5516 5517 5518 5519 5520 5521 5522 5523 5523 5524 5525 5526 5527 5528 5530 5531 5532 5534 5536 5538 5540 5541 5542 5543 5543 5543 5543 5544 5544 5543 5543 5543 5542 5542 5541 5541 5540 5539 5539 5538 5537
5505 5506 5506 5507 5508 5509 5510 5511 5512 5513 5513 5514 5514 5515 5517 5518 5519 5520 5522 5523 5525 5526 5528 5530 5531 5532 5532 5532 5532 5532 5532 5532 5532 5532 5531 5531 5531 5530 5529 5529 5528 5528 5527
5496 5497 5497 5498 5499 5500 5500 5501 5502 5503 5503 5503 5504 5505 5507 5508 5509 5510 5511 5513 5514 5516 5517 5519 5520 5521 5521 5521 5521 5521 5521 5521 5521 5521 5521 5520 5520 5519 5519 5518 5518 5518 5517
5487 5487 5488 5488 5489 5490 5491 5491 5492 5492 5492 5493 5494 5495 5497 5498 5500 5501 5501 5503 5504 5506 5507 5508 5509 5510 5510 5510 5510 5510 5510 5510 5510 5510 5510 5510 5509 5509 5508 5508 5507 5507 5507
5477 5478 5479 5479 5480 5481 5481 5482 5482 5483 5483 5483 5484 5486 5487 5489 5490 5491 5492 5493 5494 5495 5496 5498 5499 5499 5500 5500 5500 5500 5500 5500 5500 5500 5500 5499 5499 5498 5498 5498 5497 5497 5497
5468 5469 5469 5470 5471 5472 5472 5473 5474 5474 5474 5475 5476 5477 5478 5479 5480 5482 5483 5484 5485 5486 5486 5488 5489 5489 5489 5490 5490 5490 5490 5490 5489 5489 5489 5489 5489 5489 5488 5488 5488 5488 5488
5459 5460 5460 5461 5462 5463 5464 5464 5465 5466 5467 5467 5468 5468 5469 5470 5471 5472 5474 5474 5475 5476 5477 5478 5479 5479 5479 5479 5479 5479 5479 5479 5479 5479 5479 5479 5479 5479 5479 5479 5479 5479 5478
5450 5450 5451 5452 5453 5454 5455 5456 5457 5457 5458 5459 5460 5461 5461 5462 5463 5464 5465 5466 5467 5467 5468 5469 5469 5470 5470 5470 5470 5469 5469 5469 5470 5470 5470 5470 5470 5469 5469 5470 5470 5469 5469
5441 5441 5442 5443 5444 5444 5445 5447 5448 5449 5450 5451 5452 5453 5453 5454 5455 5456 5456 5457 5458 5459 5459 5460 5460 5461 5461 5460 5460 5460 5460 5460 5460 5461 5461 5461 5460 5460 5460 5461 5461 5461 5461
5432 5432 5433 5433 5434 5435 5436 5438 5439 5440 5441 5443 5444 5444 5445 5446 5447 5447 5448 5449 5449 5450 5451 5451 5451 5452 5451 5451 5451 5451 5451 5451 5451 5452 5451 5451 5451 5451 5451 5451 5452 5452 5452
5423 5423 5424 5425 5426 5427 5428 5429 5430 5432 5433 5434 5436 5436 5437 5438 5438 5439 5440 5441 5441 5442 5442 5443 5443 5443 5443 5443 5443 5443 5443 5443 5443 5442 5442 5442 5442 5442 5442 5442 5443 5443 5443
5415 5415 5416 5417 5417 5418 5419 5421 5422 5423 5425 5426 5427 5429 5429 5430 5431 5431 5432 5433 5433 5434 5434 5434 5434 5434 5434 5434 5434 5434 5434 5434 5433 5433 5433 5432 5433 5433 5433 5433 5434 5434 5434
5407 5407 5408 5409 5409 5410 5411 5413 5414 5415 5417 5418 5420 5421 5422 5422 5423 5424 5424 5425 5425 5425 5425 5426 5426 5426 5425 5425 5425 5425 5425 5424 5424 5423 5423 5423 5423 5423 5424 5424 5425 5425 5426
5399 5400 5401 5401 5402 5402 5404 5405 5406 5407 5409 5410 5411 5413 5414 5414 5415 5415 5416 5416 5416 5417 5417 5417 5417 5417 5416 5416 5416 5416 5416 5416 5415 5415 5415 5415 5415 5415 5415 5415 5416 5416 5417
5392 5393 5393 5394 5395 5395 5396 5397 5398 5400 5401 5402 5403 5404 5405 5406 5407 5407 5407 5407 5408 5408 5408 5408 5408 5408 5408 5407 5407 5408 5407 5407 5407 5406 5406 5406 5406 5407 5406 5407 5407 5408 5409